[[{"header":{"parameterUnit":"m.s-1","parameterCategory":1,"la1":30.2991,"la2":30.254,"lo1":-89.0895,"lo2":-89.0444,"dy":0.0017,"dx":0.0017,"nx":28,"ny":28,"refTime":"2025-05-22T03:00:00:Z","depth":0,"parameterNumber":2,"parameterNumberName":"U-component_of_WINDS"},"data":[0,0,0,0,0,0,0,0,0,0,0,0,0,0,0,0,0,0,0,0,0,0,0,0,0,0,0,0,0,0,0,0,0,0,0,0,0,0,0,0,0,0,0,0,0,0,0,0,0,0,0,0,0,0,0,0,0,0,0.5741,0.5742,0,0.583,0.5831,0.5832,0.589,0.589,0.589,0.5891,0.5981,0.5983,0.5986,0,0,0,0,0,0,0,0,0,0,0,0,0,0.5622,0.5624,0.5741,0.5742,0.5743,0.583,0.5831,0.5832,0.589,0.589,0.5891,0.5891,0.5981,0.5983,0.5986,0,0,0,0,0,0,0,0,0,0,0,0,0,0.5689,0.5625,0.5741,0.5783,0.5787,0.5829,0.5831,0.5832,0.589,0.589,0.5891,0.5891,0.598,0.5983,0.5986,0.5994,0,0,0.5995,0.5997,0,0,0,0,0,0,0,0,0.5685,0.5693,0.5775,0.578,0.5785,0.5849,0.5822,0.5886,0.5889,0.5851,0.5891,0.5892,0.5937,0.5944,0.5959,0.5998,0.6002,0.5996,0.5998,0.5999,0.6,0,0,0,0,0,0,0,0.568,0.569,0.5776,0.5777,0.5782,0.5797,0.5807,0.5835,0.589,0.5854,0.5859,0.5868,0.594,0.5956,0.5962,0.6003,0.5996,0.5998,0.6,0.6002,0.6053,0.6053,0,0,0,0,0,0,0.5669,0.5685,0.5774,0.5779,0.5735,0.5799,0.581,0.5828,0.5889,0.5899,0.5868,0.5871,0.595,0.5958,0.5965,0.5978,0.5999,0.6002,0.6004,0.6054,0.6053,0.6053,0,0,0,0,0,0,0.5666,0.5676,0.577,0.5733,0.5746,0.58,0.582,0.583,0.5846,0.59,0.591,0.5874,0.5951,0.5961,0.5986,0.5982,0.6003,0.6006,0.6054,0.6054,0.6053,0.6005,0,0,0,0,0,0,0.5663,0.5675,0.5678,0.5733,0.5748,0.5789,0.582,0.5831,0.5851,0.5856,0.5908,0.5918,0.5952,0.5981,0.5989,0.5987,0.6008,0.6055,0.6054,0.6053,0.6007,0.6003,0.5999,0,0,0,0,0,0.5658,0.5661,0.5678,0.5689,0.5754,0.5789,0.5798,0.5838,0.585,0.5854,0.5889,0.5916,0.5981,0.5983,0.5993,0.5991,0.6056,0.6054,0.6053,0.6009,0.6003,0.5999,0,0,0,0,0,0,0.5605,0.5669,0.5689,0.571,0.5743,0.5799,0.5805,0.5831,0.5861,0.5864,0.5913,0.5924,0.5945,0.5971,0.5972,0.6002,0.6022,0.6022,0.5985,0.598,0.5976,0.5969,0.6011,0,0,0,0,0,0.5595,0.5619,0.5674,0.5687,0.5703,0.5751,0.5768,0.5796,0.5833,0.5847,0.5884,0.5919,0.5947,0.5965,0.5994,0.6011,0.6023,0.6015,0.601,0.6007,0.6007,0.6018,0.6015,0.6049,0.6049,0.6049,0,0,0.5576,0.5615,0.5626,0.5677,0.5707,0.573,0.5763,0.5786,0.5804,0.5851,0.5877,0.5905,0.5947,0.5969,0.598,0.5991,0.6,0.6005,0.6002,0.6004,0.6016,0.6013,0.601,0.6049,0.6049,0.6049,0,0,0.5554,0.5585,0.5599,0.5628,0.5672,0.5704,0.5708,0.5759,0.578,0.5807,0.5843,0.5865,0.5913,0.5941,0.5962,0.595,0.5976,0.5958,0.5937,0.5947,0.5944,0.5942,0.5938,0.5936,0.5958,0.5958,0.5958,0,0.5524,0.5561,0.5603,0.5625,0.5646,0.569,0.5705,0.5731,0.5782,0.5796,0.5808,0.5869,0.59,0.5929,0.5926,0.5941,0.5947,0.5953,0.5941,0.5939,0.5938,0.5934,0.5933,0.5956,0.5956,0.5956,0.5956,0,0.5523,0.5548,0.5554,0.5603,0.5625,0.5643,0.5688,0.5705,0.5731,0.5762,0.5789,0.5828,0.5866,0.5875,0.59,0.5907,0.5913,0.5932,0.5952,0.5931,0.5929,0.5928,0.5952,0.5953,0.5954,0.5954,0,0,0.5469,0.5541,0.5543,0.5565,0.5617,0.5637,0.5657,0.5695,0.5708,0.5742,0.576,0.58,0.5818,0.5842,0.5871,0.5879,0.5868,0.5898,0.59,0.5891,0.5878,0.5863,0.586,0.5885,0.5885,0.5885,0.5874,0,0.5454,0.5493,0.5531,0.5556,0.5579,0.5621,0.5639,0.5672,0.5701,0.5726,0.5758,0.5785,0.5807,0.5822,0.5832,0.5867,0.5865,0.5868,0.5902,0.5903,0.589,0.5859,0.5844,0.5832,0.5873,0.5873,0.5873,0,0.5442,0.5474,0.5501,0.5551,0.5562,0.5577,0.5615,0.5637,0.5676,0.5697,0.5723,0.5754,0.5777,0.5794,0.5827,0.5828,0.5844,0.5863,0.5863,0.5868,0.5887,0.5863,0.5829,0.5827,0.5872,0.5872,0.5872,0,0.54,0.545,0.5473,0.5491,0.555,0.5559,0.5584,0.5624,0.5644,0.5676,0.569,0.5724,0.5743,0.5769,0.5808,0.5818,0.5837,0.5858,0.5854,0.5853,0.5857,0.5856,0.5824,0.5867,0.5867,0.5867,0.5867,0,0.538,0.5395,0.5455,0.5469,0.5487,0.5531,0.5547,0.5576,0.5611,0.5631,0.5669,0.5687,0.5738,0.5762,0.5793,0.5815,0.5823,0.5841,0.5849,0.5837,0.5835,0.5849,0.5851,0.5866,0.5867,0.5867,0.5867,0,0.5336,0.5377,0.5404,0.5458,0.5472,0.5482,0.5528,0.5543,0.5575,0.56,0.5608,0.5657,0.5687,0.5729,0.5772,0.5793,0.5811,0.5824,0.5798,0.5802,0.5797,0.5797,0.5773,0.5772,0.5814,0.5814,0.5814,0,0.532,0.5333,0.5388,0.5404,0.5428,0.5453,0.5474,0.5518,0.5538,0.5583,0.5593,0.5626,0.5655,0.5701,0.5741,0.5774,0.5788,0.5777,0.5793,0.5781,0.5788,0.5787,0.5788,0.5773,0.5773,0.5772,0.5772,0,0.5288,0.5308,0.5336,0.5371,0.5395,0.5424,0.5456,0.5467,0.5518,0.5538,0.557,0.5592,0.5636,0.5669,0.5707,0.5733,0.5761,0.5766,0.5767,0.5756,0.574,0.5749,0.5787,0.5767,0.5767,0.5767,0.5768,0.5768,0.5258,0.5271,0.5312,0.5342,0.537,0.5399,0.5416,0.5449,0.5476,0.5516,0.554,0.557,0.5609,0.5664,0.5688,0.5713,0.5724,0.5725,0.5726,0.5725,0.5721,0.5736,0.572,0.572,0.572,0.572,0.572,0,0.5228,0.5256,0.5283,0.5327,0.535,0.5374,0.541,0.5429,0.5455,0.5489,0.5517,0.5553,0.5585,0.5626,0.5661,0.5672,0.5686,0.568,0.568,0.5685,0.571,0.5705,0.5669,0.5669,0.5669,0.5669,0.5669,0.5669,0.5215,0.5238,0.5263,0.5301,0.5329,0.5359,0.5378,0.5404,0.5432,0.547,0.5497,0.5524,0.5561,0.5599,0.5629,0.5641,0.5652,0.5642,0.5657,0.5679,0.5684,0.5688,0.5684,0.5644,0.5644,0.5631,0.5631,0.5631]},{"header":{"parameterUnit":"m.s-1","parameterCategory":1,"la1":30.2991,"la2":30.254,"lo1":-89.0895,"lo2":-89.0444,"dy":0.0017,"dx":0.0017,"nx":28,"ny":28,"refTime":"2025-05-22T03:00:00:Z","depth":0,"parameterNumber":3,"parameterNumberName":"V-component_of_WINDS"},"data":[0,0,0,0,0,0,0,0,0,0,0,0,0,0,0,0,0,0,0,0,0,0,0,0,0,0,0,0,0,0,0,0,0,0,0,0,0,0,0,0,0,0,0,0,0,0,0,0,0,0,0,0,0,0,0,0,0,0,1.2057,1.2057,0,1.2043,1.2043,1.2043,1.2082,1.2083,1.2085,1.2086,1.207,1.2069,1.2067,0,0,0,0,0,0,0,0,0,0,0,0,0,1.2115,1.2114,1.2057,1.2057,1.2057,1.2043,1.2043,1.2043,1.2082,1.2084,1.2085,1.2086,1.2071,1.2069,1.2067,0,0,0,0,0,0,0,0,0,0,0,0,0,1.2095,1.2114,1.2057,1.2075,1.2076,1.2043,1.2043,1.2043,1.2082,1.2084,1.2085,1.2087,1.2071,1.2069,1.2067,1.2016,0,0,1.206,1.2059,0,0,0,0,0,0,0,0,1.2096,1.2092,1.2072,1.2074,1.2075,1.2066,1.2058,1.2034,1.2081,1.208,1.2086,1.2088,1.2068,1.2066,1.2059,1.2015,1.2015,1.206,1.2058,1.2057,1.2057,0,0,0,0,0,0,0,1.2097,1.2093,1.2052,1.2072,1.2074,1.2083,1.2082,1.2054,1.2063,1.208,1.2083,1.2081,1.2069,1.2061,1.2059,1.2015,1.206,1.2058,1.2056,1.2055,1.1926,1.1924,0,0,0,0,0,0,1.2097,1.2094,1.2052,1.2051,1.209,1.208,1.2079,1.2067,1.2064,1.2065,1.2079,1.2082,1.2064,1.2062,1.2059,1.1997,1.2057,1.2055,1.2054,1.1928,1.1926,1.1923,0,0,0,0,0,0,1.2098,1.2092,1.2053,1.2073,1.2069,1.2077,1.2064,1.2066,1.2059,1.2063,1.2065,1.207,1.2066,1.2062,1.2026,1.1997,1.2054,1.2052,1.1931,1.1927,1.1925,1.1874,0,0,0,0,0,0,1.2099,1.2093,1.2074,1.2073,1.2068,1.2021,1.2062,1.2065,1.2055,1.2059,1.2055,1.2056,1.2067,1.2029,1.2024,1.1995,1.205,1.1933,1.1929,1.1926,1.1879,1.187,1.1862,0,0,0,0,0,1.2101,1.2061,1.2073,1.2068,1.2045,1.2019,1.2016,1.203,1.2052,1.2033,1.2036,1.2056,1.2001,1.2025,1.2019,1.1989,1.1935,1.193,1.1926,1.1882,1.1872,1.1863,0,0,0,0,0,0,1.2058,1.2061,1.2074,1.2033,1.2025,1.2026,1.2002,1.2018,1.2004,1.2009,1.2026,1.2025,1.1985,1.1984,1.201,1.1939,1.1972,1.1966,1.1941,1.1931,1.1923,1.1923,1.2048,0,0,0,0,0,1.2044,1.2023,1.2027,1.1989,1.1985,1.1994,1.1983,1.1994,1.1987,1.1984,1.1985,1.1976,1.1957,1.1944,1.1927,1.1879,1.1878,1.1855,1.1847,1.1841,1.1835,1.1807,1.1797,1.1908,1.1908,1.1909,0,0,1.2014,1.2013,1.1999,1.1981,1.1976,1.1954,1.1991,1.1966,1.1949,1.1981,1.1946,1.1946,1.1938,1.1895,1.1876,1.1893,1.1804,1.1835,1.183,1.1827,1.1801,1.1791,1.1781,1.1905,1.1906,1.1906,0,0,1.1948,1.1946,1.1913,1.1908,1.1901,1.1907,1.1899,1.1897,1.1898,1.1864,1.1886,1.1866,1.1833,1.1826,1.1818,1.1747,1.1764,1.1741,1.1698,1.1671,1.1662,1.1654,1.1627,1.1617,1.1735,1.1735,1.1735,0,1.1911,1.1878,1.1894,1.1867,1.1857,1.1885,1.1851,1.1845,1.1833,1.1825,1.1844,1.1802,1.1799,1.1754,1.1736,1.173,1.172,1.1741,1.1662,1.1654,1.1647,1.1621,1.1611,1.1732,1.1732,1.1733,1.1733,0,1.1833,1.181,1.1784,1.1771,1.1759,1.1728,1.1739,1.1724,1.1736,1.1739,1.1703,1.17,1.1682,1.1672,1.1684,1.1628,1.1638,1.1659,1.1693,1.1633,1.1609,1.16,1.1728,1.1729,1.173,1.173,0,0,1.1739,1.1734,1.1724,1.1717,1.1711,1.1693,1.1663,1.1645,1.1632,1.1622,1.1596,1.1567,1.1586,1.1577,1.1588,1.1564,1.1505,1.1588,1.1588,1.1571,1.1441,1.1424,1.1412,1.1517,1.1516,1.1514,1.1441,0,1.1671,1.1621,1.1634,1.1583,1.156,1.1585,1.1559,1.1552,1.1554,1.1535,1.1538,1.1516,1.1544,1.1538,1.1516,1.1517,1.1479,1.1523,1.1492,1.1491,1.1491,1.14,1.1382,1.1313,1.1432,1.143,1.1429,0,1.1586,1.1573,1.1519,1.1515,1.1506,1.1482,1.1465,1.1447,1.1439,1.1442,1.1431,1.1446,1.1415,1.145,1.1407,1.1436,1.1424,1.1423,1.1421,1.1417,1.1455,1.1391,1.1291,1.128,1.1415,1.1416,1.1417,0,1.152,1.1489,1.1452,1.1446,1.144,1.1423,1.1419,1.1413,1.1401,1.1386,1.1378,1.136,1.135,1.1335,1.1344,1.1369,1.1299,1.1335,1.1299,1.1299,1.1282,1.1283,1.1176,1.1277,1.1278,1.1278,1.1278,0,1.1443,1.1408,1.1422,1.1399,1.1361,1.1376,1.1337,1.1337,1.1331,1.1307,1.1329,1.1306,1.1321,1.1299,1.1307,1.1268,1.1264,1.1265,1.1267,1.1262,1.1261,1.1253,1.1257,1.1275,1.1276,1.1276,1.1277,0,1.1362,1.137,1.1331,1.1329,1.1327,1.1299,1.1297,1.1275,1.1279,1.1249,1.1243,1.1248,1.1224,1.1232,1.1206,1.1211,1.1161,1.117,1.1164,1.1165,1.1128,1.1131,1.1012,1.0996,1.1109,1.1108,1.1107,0,1.1311,1.1285,1.1279,1.1265,1.1261,1.1238,1.1225,1.1239,1.1224,1.1212,1.1191,1.1169,1.1151,1.111,1.1112,1.1091,1.1099,1.1058,1.1096,1.1091,1.1096,1.1096,1.1093,1.105,1.1049,1.1048,1.1047,0,1.1219,1.1224,1.1205,1.1187,1.1171,1.1157,1.1146,1.1133,1.1145,1.1128,1.1103,1.1089,1.1062,1.1039,1.102,1.1016,1.1032,1.1035,1.1026,1.1019,1.1016,1.1015,1.1141,1.1038,1.1039,1.1039,1.104,1.104,1.115,1.1127,1.1119,1.1097,1.109,1.1078,1.1057,1.1057,1.1037,1.1016,1.1025,1.0996,1.0986,1.0963,1.0956,1.0933,1.0948,1.0935,1.0931,1.0927,1.0921,1.1021,1.093,1.093,1.093,1.093,1.0931,0,1.1057,1.1053,1.1033,1.1015,1.0997,1.1015,1.1003,1.0986,1.096,1.095,1.0932,1.0903,1.088,1.0879,1.0857,1.0838,1.0845,1.0832,1.0832,1.0831,1.0909,1.0919,1.0826,1.0826,1.0826,1.0826,1.0827,1.0827,1.1007,1.0969,1.0972,1.093,1.0926,1.0898,1.0889,1.0877,1.0869,1.0835,1.0816,1.0816,1.0809,1.0787,1.0766,1.0766,1.0756,1.0739,1.0742,1.0815,1.0826,1.0835,1.0844,1.0738,1.0737,1.0665,1.0665,1.0664]}]]